Location: La Pernelle
(49.6188°N, 1.2999°W)
Time: 15:37:06
(UTC+00:00)

Cosmos 1707 - Pass Details

Date: 12 June 2021
Orbit: 513 x 530 km, 82.5° (Epoch: 04 August)

Event Time Altitude Azimuth Distance (km) Brightness Sun altitude
Exits shadow 21:48:06 - 199° (SSW) 2,175 5.5 -11.1°
Reaches altitude 10° 21:49:07 10° 201° (SSW) 1,758 5.0 -11.1°
Maximum altitude 21:52:57 61° 282° (WNW) 602 3.2 -11.5°
Drops below altitude 10° 21:56:49 10° 4° (N) 1,783 6.3 -11.8°
Sets 21:59:01 0° 8° (N) 2,680 7.3 -12.0°
